This demonstration page uses our WeatherBlox Daily Observations layout. Learn more.

Left ArrowRight Arrow

Hourly Observations for October 10, 2021

Temp ( °F °C ) Dew Point ( °F °C ) Humidity (%) Winds ( mph kmh ) Pressure ( in mb ) Visibility ( mi km ) Precip ( " mm )
12:53 am 00:53 Clear 61 16.1 50 10 67 67 NW 12 19 29.67 1005 10 16 N/A
1:53 am 01:53 Clear 59 15 49 9.4 69 69 NW 7 11 29.67 1005 10 16 N/A
2:53 am 02:53 Clear 55 12.8 47 8.3 74 74 NW 7 11 29.69 1005 10 16 N/A
3:53 am 03:53 Clear 55 12.8 46 7.8 72 72 NW 12 19 29.66 1005 10 16 N/A
4:53 am 04:53 Clear 54 12.2 46 7.8 75 75 WNW 9 15 29.70 1006 10 16 N/A
5:53 am 05:53 Clear 53 11.7 45 7.2 74 74 W 6 9 29.71 1006 10 16 N/A
6:53 am 06:53 Clear 52 11.1 45 7.2 77 77 undefined N/A 29.72 1006 10 16 N/A
7:53 am 07:53 Mostly Sunny 50 10 45 7.2 83 83 NW 8 13 29.73 1007 10 16 N/A
8:53 am 08:53 Sunny 53 11.7 47 8.3 80 80 NW 12 19 29.73 1007 10 16 N/A
9:53 am 09:53 Sunny 59 15 48 8.9 67 67 NW 18 30 29.74 1007 10 16 N/A
10:53 am 10:53 Sunny with Light Rain 60 15.6 48 8.9 65 65 NNW 16 26 29.74 1007 10 16 0.00 0.00
11:53 am 11:53 Sunny 65 18.3 46 7.8 51 51 NNW 17 28 29.76 1008 10 16 0.00 0.00
12:53 pm 12:53 Sunny 66 18.9 46 7.8 49 49 N 14 22 29.75 1008 10 16 N/A
1:53 pm 13:53 Sunny 67 19.4 45 7.2 45 45 NNE 10 17 29.75 1007 10 16 N/A
2:53 pm 14:53 Sunny 68 20 41 5 38 38 N 15 24 29.72 1007 10 16 N/A
3:53 pm 15:53 Sunny 68 20 38 3.3 33 33 NNW 10 17 29.71 1006 10 16 N/A
4:53 pm 16:53 Sunny 67 19.4 34 1.1 30 30 N 7 11 29.74 1007 10 16 N/A
5:53 pm 17:53 Sunny 65 18.3 37 2.8 36 36 N 5 7 29.75 1008 10 16 N/A
6:53 pm 18:53 Sunny 64 17.8 38 3.3 38 38 N N/A 29.76 1008 10 16 N/A
7:53 pm 19:53 Clear 56 13.3 43 6.1 62 62 N N/A 29.78 1008 10 16 N/A
8:53 pm 20:53 Clear 55 12.8 42 5.6 62 62 N N/A 29.78 1008 10 16 N/A
9:53 pm 21:53 Clear 52 11.1 42 5.6 69 69 N N/A 29.76 1008 9 14 N/A
10:53 pm 22:53 Clear 50 10 40 4.4 68 68 N N/A 29.75 1008 9 14 N/A
11:53 pm 23:53 Clear 48 8.9 40 4.4 74 74 undefined N/A 29.73 1007 10 16 N/A

Powered by AerisWeather